431  
SXUS52 KJAX 252014  
OSOJAX  
OTHER SURFACE OBSERVATIONS  
NATIONAL WEATHER SERVICE JACKSONVILLE FL  
300 PM EST SAT JAN 25 2020  
 
FLZ020>025-030>033-035>038-040-252100-   
..FLORIDA
 
 
 
CITY SKY/WX TMP DP RH WIND PRES REMARKS  
CECIL FIELD SUNNY 68 32 26 W12 30.05F  
HERLONG FIELD NOT AVBL  
FERNANDINA BCH NOT AVBL  
LAKE CITY FAIR 63 32 31 W10G20 30.06F  
JUNIPER SPGS NOT AVBL  
BUNNELL NOT AVBL  
KEYSTONE HGTS CLEAR 64 27 24 W14 30.04F  

 
 
GAZ132>136-149>154-162>166-252100-   
..GEORGIA
 
 
 
CITY SKY/WX TMP DP RH WIND PRES REMARKS  
JESUP FAIR 61 36 39 W7G18 30.04S  
HOMERVILLE FAIR 59 32 36 W9 30.05F  
SWAINSBORO FAIR 55 37 50 W9 30.03S  
CORDELE NOT AVBL  

 
 
PLEASE NOTE: THESE OBSERVATIONS ARE NOT QUALITY CONTROLLED AND MAY  
NOT BE AVAILABLE AT ALL TIMES.  

 
 
 
CLICK HERE TO GO TO PREVIOUS BULLETINS.

The Nexlab FL Page
The Nexlab GA Page Main Text Page